Weather History for K05U - June, 2013

Change the Weather History Date:

Monday, June 17, 2013

  Actual Average Record
Temperature  
Mean Temperature 64 °F -  
Max Temperature 87 °F - - ()
Min Temperature 41 °F - - ()
Degree Days  
Heating Degree Days 1    
Growing Degree Days 14 (Base 50)    
Moisture  
Dew Point 18 °F    
Average Humidity 17    
Maximum Humidity 39    
Minimum Humidity 7    
Precipitation  
Precipitation 0.00 in - - ()
Sea Level Pressure  
Sea Level Pressure 30.12 in    
Wind  
Wind Speed 5 mph (SSW)    
Max Wind Speed 13 mph    
Max Gust Speed 28 mph    
Visibility 10 miles    
Events      
T = Trace of Precipitation, MM = Missing Value Source: NWS Daily Summary

Daily Weather History Graph

Daily Weather History Graph

Search for Another Location

Airport or City:

Trip Planner

Search our weather history database for the weather conditions in past years. The results will help you decide how hot, cold, wet, or windy it might be!

Date:

Astronomy

Jun. 17, 2013 Rise Set
Actual Time 5:16 AM PDT 8:14 PM PDT
Civil Twilight 4:43 AM PDT 8:46 PM PDT
Nautical Twilight 4:02 AM PDT 9:27 PM PDT
Astronomical Twilight 3:14 AM PDT 10:15 PM PDT
Moon 1:58 PM PDT (6/17) 12:52 AM PDT (6/17)
Length of Visible Light 16h 03m
Length of Day
14h 58m
First Quarter, 61% of the Moon is Illuminated
Jun 17
First Quarter
Jun 23
Full
Jun 29
Last Quarter
Jul 8
New
Jul 15
First Quarter

Hourly Weather History & Observations

Time (PDT) Temp. Windchill Dew Point Humidity Pressure Visibility Wind Dir Wind Speed Gust Speed Precip Events Conditions
12:10 AM 50.0 °F - 17.6 °F 28% 30.21 in 10.0 mi SE 4.6 mph - N/A   Clear
12:30 AM 51.8 °F - 15.8 °F 24% 30.20 in 10.0 mi SSE 4.6 mph - N/A   Clear
12:50 AM 48.2 °F - 14.0 °F 25% 30.20 in 10.0 mi Calm Calm - N/A   Clear
1:10 AM 46.4 °F - 15.8 °F 29% 30.21 in 10.0 mi Calm Calm - N/A   Clear
1:30 AM 46.4 °F - 17.6 °F 32% 30.21 in 10.0 mi Calm Calm - N/A   Clear
1:50 AM 46.4 °F 42.9 °F 15.8 °F 29% 30.20 in 10.0 mi South 6.9 mph - N/A   Clear
2:10 AM 44.6 °F 42.2 °F 15.8 °F 31% 30.20 in 10.0 mi SE 4.6 mph - N/A   Clear
2:30 AM 46.4 °F - 17.6 °F 32% 30.20 in 10.0 mi Calm Calm - N/A   Clear
2:50 AM 46.4 °F - 15.8 °F 29% 30.20 in 10.0 mi Calm Calm - N/A   Clear
3:10 AM 46.4 °F 43.5 °F 14.0 °F 27% 30.19 in 10.0 mi SSE 5.8 mph - N/A   Clear
3:30 AM 46.4 °F 45.2 °F 15.8 °F 29% 30.19 in 10.0 mi South 3.5 mph - N/A   Clear
3:50 AM 44.6 °F 42.2 °F 15.8 °F 31% 30.19 in 10.0 mi South 4.6 mph - N/A   Clear
4:10 AM 46.4 °F 43.5 °F 15.8 °F 29% 30.19 in 10.0 mi South 5.8 mph - N/A   Clear
4:30 AM 42.8 °F 40.1 °F 17.6 °F 36% 30.19 in 10.0 mi South 4.6 mph - N/A   Clear
4:50 AM 41.0 °F 36.4 °F 17.6 °F 39% 30.19 in 10.0 mi South 6.9 mph - N/A   Clear
5:10 AM - - - N/A% - - North - - N/A   Unknown
5:30 AM 46.4 °F 42.4 °F 17.6 °F 32% 30.20 in 10.0 mi South 8.1 mph - N/A   Unknown
5:50 AM 48.2 °F - 17.6 °F 30% 30.20 in 10.0 mi South 9.2 mph - N/A   Clear
6:10 AM 53.6 °F - 17.6 °F 24% 30.21 in 10.0 mi South 4.6 mph - N/A   Clear
6:30 AM 55.4 °F - 19.4 °F 25% 30.21 in 10.0 mi Calm Calm - N/A   Clear
6:50 AM 59.0 °F - 19.4 °F 22% 30.21 in 10.0 mi Calm Calm - N/A   Clear
7:10 AM 62.6 °F - 17.6 °F 18% 30.21 in 10.0 mi SW 3.5 mph - N/A   Clear
7:30 AM 62.6 °F - 19.4 °F 19% 30.21 in 10.0 mi SW 4.6 mph - N/A   Clear
7:50 AM 66.2 °F - 17.6 °F 15% 30.20 in 10.0 mi Calm Calm - N/A   Clear
8:10 AM 68.0 °F - 17.6 °F 15% 30.20 in 10.0 mi Calm Calm - N/A   Clear
8:30 AM 71.6 °F - 19.4 °F 14% 30.20 in 10.0 mi ENE 3.5 mph - N/A   Clear
8:50 AM 71.6 °F - 19.4 °F 14% 30.20 in 10.0 mi NNE 5.8 mph - N/A   Clear
9:10 AM 73.4 °F - 19.4 °F 13% 30.20 in 10.0 mi NNE 6.9 mph - N/A   Clear
9:30 AM 73.4 °F - 23.0 °F 15% 30.19 in 10.0 mi North 8.1 mph - N/A   Clear
9:50 AM 75.2 °F - 24.8 °F 15% 30.18 in 10.0 mi NNE 4.6 mph - N/A   Clear
10:10 AM 77.0 °F - 23.0 °F 13% 30.18 in 10.0 mi NNW 8.1 mph - N/A   Clear
10:30 AM 77.0 °F - 23.0 °F 13% 30.17 in 10.0 mi NNE 5.8 mph - N/A   Clear
10:50 AM 80.6 °F - 23.0 °F 12% 30.17 in 10.0 mi North 4.6 mph - N/A   Clear
11:10 AM 80.6 °F - 24.8 °F 13% 30.16 in 10.0 mi Calm Calm - N/A   Clear
11:30 AM 80.6 °F - 23.0 °F 12% 30.16 in 10.0 mi North 4.6 mph - N/A   Clear
11:50 AM 82.4 °F - 21.2 °F 10% 30.15 in 10.0 mi Calm Calm - N/A   Clear
12:10 PM 84.2 °F - 19.4 °F 9% 30.14 in 10.0 mi Calm Calm - N/A   Clear
12:30 PM 84.2 °F - 21.2 °F 10% 30.12 in 10.0 mi NW 6.9 mph - N/A   Clear
12:50 PM 84.2 °F - 19.4 °F 9% 30.12 in 10.0 mi North 4.6 mph - N/A   Clear
1:10 PM 86.0 °F - 17.6 °F 8% 30.11 in 10.0 mi SSW 3.5 mph - N/A   Clear
1:30 PM 84.2 °F - 15.8 °F 8% 30.10 in 10.0 mi SSE 10.4 mph - N/A   Clear
1:50 PM 87.8 °F - 15.8 °F 7% 30.09 in 10.0 mi SSW 8.1 mph 23.0 mph N/A   Clear
2:10 PM 86.0 °F - 17.6 °F 8% 30.08 in 10.0 mi West 9.2 mph 16.1 mph N/A   Clear
2:30 PM 86.0 °F - 15.8 °F 7% 30.08 in 10.0 mi Calm Calm - N/A   Clear
2:50 PM 84.2 °F - 15.8 °F 8% 30.07 in 10.0 mi SE 10.4 mph - N/A   Clear
3:10 PM 84.2 °F - 15.8 °F 8% 30.06 in 10.0 mi Calm Calm - N/A   Clear
3:30 PM 84.2 °F - 14.0 °F 7% 30.05 in 10.0 mi Calm Calm - N/A   Clear
3:50 PM 84.2 °F - 14.0 °F 7% 30.04 in 10.0 mi SSW 9.2 mph - N/A   Clear
4:10 PM 84.2 °F - 15.8 °F 8% 30.04 in 10.0 mi South 5.8 mph - N/A   Clear
4:30 PM 86.0 °F - 14.0 °F 7% 30.03 in 10.0 mi SSW 8.1 mph - N/A   Clear
4:50 PM 84.2 °F - 17.6 °F 8% 30.03 in 10.0 mi SE 8.1 mph - N/A   Clear
5:10 PM 87.8 °F - 15.8 °F 7% 30.02 in 10.0 mi WSW 8.1 mph 27.6 mph N/A   Clear
5:30 PM 84.2 °F - 15.8 °F 8% 30.02 in 10.0 mi WSW 11.5 mph 18.4 mph N/A   Clear
5:50 PM 86.0 °F - 15.8 °F 7% 30.02 in 10.0 mi WNW 6.9 mph 19.6 mph N/A   Clear
6:10 PM 84.2 °F - 15.8 °F 8% 30.02 in 10.0 mi WSW 9.2 mph - N/A   Clear
6:30 PM 84.2 °F - 15.8 °F 8% 30.02 in 10.0 mi SW 5.8 mph - N/A   Clear
6:50 PM 82.4 °F - 17.6 °F 9% 30.02 in 10.0 mi WSW 12.7 mph 18.4 mph N/A   Clear
7:10 PM 80.6 °F - 15.8 °F 9% 30.02 in 10.0 mi SW 10.4 mph - N/A   Clear
7:30 PM 78.8 °F - 17.6 °F 10% 30.02 in 10.0 mi West 8.1 mph - N/A   Clear
7:50 PM 78.8 °F - 19.4 °F 11% 30.02 in 10.0 mi West 9.2 mph - N/A   Clear
8:10 PM 77.0 °F - 19.4 °F 12% 30.03 in 10.0 mi WNW 5.8 mph - N/A   Clear
8:30 PM 75.2 °F - 19.4 °F 12% 30.03 in 10.0 mi NW 11.5 mph 16.1 mph N/A   Partly Cloudy
8:50 PM 75.2 °F - 19.4 °F 12% 30.03 in 10.0 mi WNW 8.1 mph 16.1 mph N/A   Partly Cloudy
9:10 PM 73.4 °F - 19.4 °F 13% 30.04 in 10.0 mi NNE 9.2 mph - N/A   Clear
9:30 PM 68.0 °F - 23.0 °F 18% 30.05 in 10.0 mi NNW 8.1 mph - N/A   Clear
9:50 PM 68.0 °F - 24.8 °F 20% 30.06 in 10.0 mi ESE 9.2 mph - N/A   Clear
10:10 PM 66.2 °F - 23.0 °F 19% 30.07 in 10.0 mi East 5.8 mph - N/A   Clear
10:30 PM 62.6 °F - 23.0 °F 22% 30.07 in 10.0 mi Calm Calm - N/A   Clear
10:50 PM 57.2 °F - 24.8 °F 29% 30.07 in 10.0 mi SSE 5.8 mph - N/A   Clear
11:10 PM 57.2 °F - 19.4 °F 23% 30.06 in 10.0 mi South 4.6 mph - N/A   Clear
11:30 PM 55.4 °F - 23.0 °F 29% 30.06 in 10.0 mi South 5.8 mph - N/A   Clear
11:50 PM 53.6 °F - 21.2 °F 28% 30.06 in 10.0 mi SSE 4.6 mph - N/A   Clear